Time,TemperatureF,DewpointF,PressureIn,WindDirection,WindDirectionDegrees,WindSpeedMPH,WindSpeedGustMPH,Humidity,HourlyPrecipIn,Conditions,Clouds,dailyrainin,SoftwareType,DateUTC
2013-01-11 00:02:00,41.0,40.0,29.71,SE,145,6.0,10.0,98,0.00,,,0.26,,2013-01-11 06:02:00,
2013-01-11 00:12:00,41.0,40.0,29.71,SE,145,6.0,10.0,98,0.00,,,0.26,,2013-01-11 06:12:00,
2013-01-11 00:22:00,41.0,40.0,29.69,SE,141,8.0,11.0,98,0.00,,,0.26,,2013-01-11 06:22:00,
2013-01-11 00:32:00,42.0,41.0,29.68,SE,146,7.0,10.0,98,0.00,,,0.26,,2013-01-11 06:32:00,
2013-01-11 00:42:00,42.0,41.0,29.68,SE,146,7.0,10.0,98,0.00,,,0.26,,2013-01-11 06:42:00,
2013-01-11 00:52:00,42.0,41.0,29.68,SSE,160,5.0,10.0,98,0.00,,,0.26,,2013-01-11 06:52:00,
2013-01-11 01:02:00,42.0,41.0,29.68,SSE,165,7.0,12.0,98,0.00,,,0.26,,2013-01-11 07:02:00,
2013-01-11 01:12:00,42.0,41.0,29.67,SSE,150,8.0,14.0,98,0.00,,,0.26,,2013-01-11 07:12:00,
2013-01-11 01:22:00,42.0,41.0,29.67,SSE,150,8.0,14.0,98,0.00,,,0.26,,2013-01-11 07:22:00,
2013-01-11 01:32:00,42.0,41.0,29.67,South,188,7.0,13.0,98,0.00,,,0.26,,2013-01-11 07:32:00,
2013-01-11 01:42:00,42.0,41.0,29.68,SSW,197,9.0,13.0,98,0.00,,,0.26,,2013-01-11 07:42:00,
2013-01-11 01:52:00,42.0,41.0,29.68,SSW,197,9.0,13.0,98,0.00,,,0.26,,2013-01-11 07:52:00,
2013-01-11 02:02:00,42.0,41.0,29.67,SSW,196,7.0,13.0,98,0.00,,,0.26,,2013-01-11 08:02:00,
2013-01-11 02:12:00,42.0,41.0,29.68,SW,219,10.0,14.0,98,0.00,,,0.26,,2013-01-11 08:12:00,
2013-01-11 02:22:00,42.0,41.0,29.68,SW,219,10.0,14.0,98,0.00,,,0.26,,2013-01-11 08:22:00,
2013-01-11 02:32:00,42.0,41.0,29.68,SW,225,11.0,16.0,98,0.00,,,0.26,,2013-01-11 08:32:00,
2013-01-11 02:42:00,42.0,41.0,29.68,SW,225,11.0,16.0,98,0.00,,,0.26,,2013-01-11 08:42:00,
2013-01-11 02:52:00,42.0,41.0,29.68,SW,234,10.0,19.0,98,0.00,,,0.26,,2013-01-11 08:52:00,
2013-01-11 03:02:00,42.0,41.0,29.67,SW,218,8.0,12.0,98,0.00,,,0.26,,2013-01-11 09:02:00,
2013-01-11 03:12:00,42.0,41.0,29.67,SW,218,8.0,12.0,98,0.00,,,0.26,,2013-01-11 09:12:00,
2013-01-11 03:22:00,42.0,41.0,29.67,SSW,202,10.0,15.0,98,0.00,,,0.26,,2013-01-11 09:22:00,
2013-01-11 03:32:00,43.0,42.0,29.65,SSW,206,8.0,14.0,98,0.00,,,0.26,,2013-01-11 09:32:00,
2013-01-11 03:42:00,43.0,42.0,29.65,SSW,206,8.0,14.0,98,0.00,,,0.26,,2013-01-11 09:42:00,
2013-01-11 03:52:00,43.0,42.0,29.64,South,191,8.0,14.0,98,0.00,,,0.26,,2013-01-11 09:52:00,
2013-01-11 04:02:00,43.0,42.0,29.64,South,188,9.0,16.0,98,0.00,,,0.26,,2013-01-11 10:02:00,
2013-01-11 04:12:00,43.0,42.0,29.64,South,188,9.0,16.0,98,0.00,,,0.26,,2013-01-11 10:12:00,
2013-01-11 04:22:00,43.0,42.0,29.63,SSW,193,9.0,16.0,98,0.00,,,0.26,,2013-01-11 10:22:00,
2013-01-11 04:32:00,44.0,43.0,29.62,SSW,213,9.0,16.0,98,0.00,,,0.26,,2013-01-11 10:32:00,
2013-01-11 04:42:00,44.0,43.0,29.62,SSW,213,9.0,16.0,98,0.00,,,0.26,,2013-01-11 10:42:00,
2013-01-11 04:52:00,44.0,43.0,29.60,South,169,8.0,16.0,98,0.00,,,0.26,,2013-01-11 10:52:00,
2013-01-11 05:02:00,44.0,43.0,29.58,SSE,158,8.0,15.0,98,0.00,,,0.26,,2013-01-11 11:02:00,
2013-01-11 05:12:00,44.0,43.0,29.58,SSE,158,8.0,15.0,98,0.00,,,0.26,,2013-01-11 11:12:00,
2013-01-11 05:22:00,44.0,43.0,29.59,South,190,8.0,20.0,98,0.00,,,0.26,,2013-01-11 11:22:00,
2013-01-11 05:32:00,44.0,43.0,29.57,SSE,153,11.0,16.0,98,0.00,,,0.26,,2013-01-11 11:32:00,
2013-01-11 05:42:00,44.0,43.0,29.57,SSE,153,11.0,16.0,98,0.00,,,0.26,,2013-01-11 11:42:00,
2013-01-11 05:53:00,44.0,43.0,29.57,South,184,10.0,18.0,98,0.00,,,0.26,,2013-01-11 11:53:00,
2013-01-11 06:03:00,44.0,43.0,29.56,SSE,155,9.0,15.0,98,0.00,,,0.26,,2013-01-11 12:03:00,
2013-01-11 06:12:00,44.0,43.0,29.56,SSE,155,9.0,15.0,98,0.00,,,0.26,,2013-01-11 12:12:00,
2013-01-11 06:22:00,44.0,43.0,29.55,SSE,163,10.0,15.0,98,0.00,,,0.26,,2013-01-11 12:22:00,
2013-01-11 06:32:00,45.0,44.0,29.55,South,183,10.0,15.0,98,0.00,,,0.26,,2013-01-11 12:32:00,
2013-01-11 06:42:00,45.0,44.0,29.55,South,183,10.0,15.0,98,0.00,,,0.26,,2013-01-11 12:42:00,
2013-01-11 06:53:00,45.0,44.0,29.55,South,184,9.0,16.0,98,0.00,,,0.26,,2013-01-11 12:53:00,
2013-01-11 07:02:00,45.0,44.0,29.55,SSW,212,10.0,14.0,98,0.00,,,0.26,,2013-01-11 13:02:00,
2013-01-11 07:12:00,45.0,44.0,29.55,SSW,212,10.0,14.0,98,0.00,,,0.26,,2013-01-11 13:12:00,
2013-01-11 07:22:00,45.0,44.0,29.54,South,185,10.0,19.0,97,0.00,,,0.25,,2013-01-11 13:22:00,
2013-01-11 07:33:00,46.0,45.0,29.55,South,173,11.0,21.0,97,0.00,,,0.25,,2013-01-11 13:33:00,
2013-01-11 07:42:00,46.0,45.0,29.55,South,173,11.0,21.0,97,0.00,,,0.25,,2013-01-11 13:42:00,
2013-01-11 07:53:00,46.0,45.0,29.54,South,179,9.0,20.0,96,0.00,,,0.25,,2013-01-11 13:53:00,
2013-01-11 08:03:00,46.0,45.0,29.55,SSW,199,10.0,20.0,95,0.00,,,0.25,,2013-01-11 14:03:00,
2013-01-11 08:12:00,46.0,45.0,29.55,SSW,199,10.0,20.0,95,0.00,,,0.25,,2013-01-11 14:12:00,
2013-01-11 08:23:00,45.0,44.0,29.55,South,169,9.0,15.0,95,0.00,,,0.23,,2013-01-11 14:23:00,
2013-01-11 08:33:00,45.0,44.0,29.54,SSW,193,9.0,20.0,95,0.00,,,0.23,,2013-01-11 14:33:00,
2013-01-11 08:42:00,45.0,44.0,29.55,SSW,208,10.0,20.0,95,0.00,,,0.23,,2013-01-11 14:42:00,
2013-01-11 08:53:00,45.0,44.0,29.55,SSW,208,10.0,20.0,95,0.00,,,0.23,,2013-01-11 14:53:00,
2013-01-11 09:03:00,45.0,44.0,29.55,SSW,197,9.0,16.0,95,0.00,,,0.23,,2013-01-11 15:03:00,
2013-01-11 09:12:00,45.0,43.0,29.54,SSW,211,13.0,20.0,94,0.00,,,0.23,,2013-01-11 15:12:00,
2013-01-11 09:23:00,45.0,43.0,29.54,SSW,211,13.0,20.0,94,0.00,,,0.23,,2013-01-11 15:23:00,
2013-01-11 09:32:00,46.0,44.0,29.54,South,190,12.0,18.0,94,0.00,,,0.23,,2013-01-11 15:32:00,
2013-01-11 09:43:00,46.0,44.0,29.54,South,190,12.0,18.0,94,0.00,,,0.23,,2013-01-11 15:43:00,
2013-01-11 09:53:00,46.0,44.0,29.54,South,190,12.0,20.0,93,0.00,,,0.23,,2013-01-11 15:53:00,
2013-01-11 10:02:00,46.0,44.0,29.52,SW,215,15.0,22.0,93,0.00,,,0.23,,2013-01-11 16:02:00,
2013-01-11 10:12:00,47.0,45.0,29.53,South,187,16.0,24.0,92,0.00,,,0.22,,2013-01-11 16:12:00,
2013-01-11 10:22:00,47.0,45.0,29.53,South,187,16.0,24.0,92,0.00,,,0.22,,2013-01-11 16:22:00,
2013-01-11 10:32:00,47.0,45.0,29.53,SSW,197,16.0,24.0,91,0.00,,,0.22,,2013-01-11 16:32:00,
2013-01-11 10:42:00,47.0,45.0,29.53,SSW,197,16.0,24.0,91,0.00,,,0.22,,2013-01-11 16:42:00,
2013-01-11 10:53:00,48.0,45.0,29.52,SSW,195,16.0,23.0,91,0.00,,,0.22,,2013-01-11 16:53:00,
2013-01-11 11:03:00,49.0,46.0,29.53,SSW,200,13.0,23.0,90,0.00,,,0.22,,2013-01-11 17:03:00,
2013-01-11 11:12:00,49.0,45.0,29.51,SSW,207,15.0,26.0,87,0.00,,,0.14,,2013-01-11 17:12:00,
2013-01-11 11:22:00,49.0,45.0,29.51,SSW,207,15.0,26.0,87,0.00,,,0.14,,2013-01-11 17:22:00,
2013-01-11 11:33:00,50.0,46.0,29.52,SW,232,15.0,23.0,85,0.00,,,0.14,,2013-01-11 17:33:00,
2013-01-11 11:43:00,50.0,46.0,29.52,SW,232,15.0,23.0,85,0.00,,,0.14,,2013-01-11 17:43:00,
2013-01-11 11:53:00,50.0,45.0,29.51,SSW,212,15.0,23.0,84,0.00,,,0.14,,2013-01-11 17:53:00,
2013-01-11 12:03:00,50.0,45.0,29.51,SW,217,14.0,22.0,84,0.00,,,0.14,,2013-01-11 18:03:00,
2013-01-11 12:12:00,50.0,45.0,29.51,SW,217,14.0,22.0,84,0.00,,,0.14,,2013-01-11 18:12:00,
2013-01-11 12:23:00,51.0,46.0,29.51,SSW,207,14.0,28.0,84,0.00,,,0.08,,2013-01-11 18:23:00,
2013-01-11 12:32:00,50.0,44.0,29.49,SSW,213,18.0,27.0,81,0.00,,,0.08,,2013-01-11 18:32:00,
2013-01-11 12:43:00,50.0,44.0,29.49,SSW,213,18.0,27.0,81,0.00,,,0.08,,2013-01-11 18:43:00,
2013-01-11 12:53:00,51.0,45.0,29.48,SSW,209,14.0,24.0,81,0.00,,,0.08,,2013-01-11 18:53:00,
2013-01-11 13:02:00,51.0,45.0,29.48,SSW,200,19.0,28.0,81,0.00,,,0.08,,2013-01-11 19:02:00,
2013-01-11 13:12:00,51.0,45.0,29.48,SSW,200,19.0,28.0,81,0.00,,,0.08,,2013-01-11 19:12:00,
2013-01-11 13:22:00,51.0,45.0,29.47,SW,216,17.0,28.0,81,0.00,,,0.07,,2013-01-11 19:22:00,
2013-01-11 13:32:00,51.0,45.0,29.47,SSW,198,17.0,24.0,80,0.00,,,0.07,,2013-01-11 19:32:00,
2013-01-11 13:43:00,51.0,45.0,29.47,SSW,198,17.0,24.0,80,0.00,,,0.07,,2013-01-11 19:43:00,
2013-01-11 13:53:00,51.0,45.0,29.46,SSW,200,15.0,26.0,79,0.00,,,0.07,,2013-01-11 19:53:00,
2013-01-11 14:03:00,51.0,44.0,29.46,SSW,207,14.0,23.0,78,0.00,,,0.07,,2013-01-11 20:03:00,
2013-01-11 14:12:00,51.0,44.0,29.46,SSW,207,14.0,23.0,78,0.00,,,0.07,,2013-01-11 20:12:00,
2013-01-11 14:22:00,51.0,44.0,29.46,SSW,211,14.0,22.0,78,0.00,,,0.07,,2013-01-11 20:22:00,
2013-01-11 14:33:00,52.0,45.0,29.46,SSW,194,14.0,21.0,78,0.00,,,0.07,,2013-01-11 20:33:00,
2013-01-11 14:43:00,52.0,45.0,29.46,SSW,194,14.0,21.0,78,0.00,,,0.07,,2013-01-11 20:43:00,
2013-01-11 14:53:00,52.0,44.0,29.46,South,174,15.0,22.0,75,0.00,,,0.07,,2013-01-11 20:53:00,
2013-01-11 15:03:00,53.0,45.0,29.46,SSW,207,15.0,24.0,74,0.00,,,0.07,,2013-01-11 21:03:00,
2013-01-11 15:12:00,52.0,44.0,29.45,South,182,13.0,22.0,75,0.00,,,0.03,,2013-01-11 21:12:00,
2013-01-11 15:23:00,52.0,44.0,29.45,South,182,13.0,22.0,75,0.00,,,0.03,,2013-01-11 21:23:00,
2013-01-11 15:32:00,53.0,45.0,29.44,SSW,192,13.0,23.0,74,0.00,,,0.03,,2013-01-11 21:32:00,
2013-01-11 15:42:00,53.0,45.0,29.44,SSW,192,13.0,23.0,74,0.00,,,0.03,,2013-01-11 21:42:00,
2013-01-11 15:53:00,52.0,44.0,29.46,South,182,13.0,21.0,75,0.00,,,0.03,,2013-01-11 21:53:00,
2013-01-11 16:02:00,52.0,44.0,29.46,SSW,194,11.0,19.0,75,0.00,,,0.03,,2013-01-11 22:02:00,
2013-01-11 16:12:00,52.0,44.0,29.45,South,188,13.0,22.0,74,0.00,,,0.01,,2013-01-11 22:12:00,
2013-01-11 16:22:00,52.0,44.0,29.45,South,188,13.0,22.0,74,0.00,,,0.01,,2013-01-11 22:22:00,
2013-01-11 16:33:00,53.0,45.0,29.45,SSW,199,14.0,24.0,75,0.00,,,0.01,,2013-01-11 22:33:00,
2013-01-11 16:42:00,53.0,45.0,29.45,SSW,199,14.0,24.0,75,0.00,,,0.01,,2013-01-11 22:42:00,
2013-01-11 16:53:00,53.0,45.0,29.45,SSW,194,12.0,22.0,75,0.00,,,0.01,,2013-01-11 22:53:00,
2013-01-11 17:02:00,53.0,45.0,29.46,SW,215,14.0,22.0,74,0.00,,,0.01,,2013-01-11 23:02:00,
2013-01-11 17:12:00,53.0,45.0,29.46,SW,215,14.0,22.0,74,0.00,,,0.01,,2013-01-11 23:12:00,
2013-01-11 17:22:00,53.0,45.0,29.46,SSW,207,16.0,25.0,74,0.00,,,0.01,,2013-01-11 23:22:00,
2013-01-11 17:32:00,53.0,45.0,29.46,SSW,207,13.0,20.0,74,0.00,,,0.01,,2013-01-11 23:32:00,
2013-01-11 17:42:00,53.0,45.0,29.46,SSW,207,13.0,20.0,74,0.00,,,0.01,,2013-01-11 23:42:00,
2013-01-11 17:53:00,53.0,45.0,29.47,SSW,201,13.0,22.0,74,0.00,,,0.01,,2013-01-11 23:53:00,
2013-01-11 18:02:00,53.0,45.0,29.46,SSW,204,15.0,22.0,74,0.00,,,0.01,,2013-01-12 00:02:00,
2013-01-11 18:12:00,53.0,45.0,29.47,SSW,200,15.0,24.0,74,0.00,,,0.01,,2013-01-12 00:12:00,
2013-01-11 18:22:00,53.0,45.0,29.47,SSW,200,15.0,24.0,74,0.00,,,0.01,,2013-01-12 00:22:00,
2013-01-11 18:32:00,54.0,46.0,29.48,SSW,202,14.0,25.0,73,0.00,,,0.01,,2013-01-12 00:32:00,
2013-01-11 18:42:00,54.0,46.0,29.48,SSW,202,14.0,25.0,73,0.00,,,0.01,,2013-01-12 00:42:00,
2013-01-11 18:53:00,54.0,46.0,29.49,SSW,196,15.0,25.0,73,0.00,,,0.01,,2013-01-12 00:53:00,
2013-01-11 19:02:00,54.0,45.0,29.49,SW,222,17.0,25.0,72,0.00,,,0.01,,2013-01-12 01:02:00,
2013-01-11 19:12:00,54.0,45.0,29.49,SW,222,17.0,25.0,72,0.00,,,0.01,,2013-01-12 01:12:00,
2013-01-11 19:22:00,55.0,45.0,29.50,SSW,210,19.0,28.0,68,0.00,,,0.01,,2013-01-12 01:22:00,
2013-01-11 19:32:00,55.0,43.0,29.52,WSW,238,17.0,29.0,63,0.00,,,0.01,,2013-01-12 01:32:00,
2013-01-11 19:42:00,55.0,43.0,29.52,WSW,238,17.0,29.0,63,0.00,,,0.01,,2013-01-12 01:42:00,
2013-01-11 19:52:00,55.0,41.0,29.52,WSW,248,22.0,31.0,59,0.00,,,0.01,,2013-01-12 01:52:00,
2013-01-11 20:02:00,54.0,40.0,29.53,WSW,243,17.0,25.0,59,0.00,,,0.01,,2013-01-12 02:02:00,
2013-01-11 20:12:00,54.0,40.0,29.53,WSW,243,17.0,25.0,59,0.00,,,0.01,,2013-01-12 02:12:00,
2013-01-11 20:22:00,53.0,32.0,29.54,WSW,252,21.0,31.0,45,0.00,,,0.01,,2013-01-12 02:22:00,
2013-01-11 20:32:00,52.0,27.0,29.55,WSW,239,19.0,28.0,37,0.00,,,0.01,,2013-01-12 02:32:00,
2013-01-11 20:42:00,52.0,27.0,29.55,WSW,239,19.0,28.0,37,0.00,,,0.01,,2013-01-12 02:42:00,
2013-01-11 20:53:00,51.0,26.0,29.56,WSW,257,18.0,26.0,37,0.00,,,0.01,,2013-01-12 02:53:00,
2013-01-11 21:02:00,50.0,24.0,29.58,West,263,22.0,34.0,36,0.00,,,0.01,,2013-01-12 03:02:00,
2013-01-11 21:12:00,50.0,24.0,29.58,West,263,22.0,34.0,36,0.00,,,0.01,,2013-01-12 03:12:00,
2013-01-11 21:22:00,49.0,25.0,29.60,WSW,253,18.0,31.0,38,0.00,,,0.01,,2013-01-12 03:22:00,
2013-01-11 21:32:00,48.0,28.0,29.63,WNW,287,19.0,28.0,45,0.00,,,0.01,,2013-01-12 03:32:00,
2013-01-11 21:43:00,48.0,28.0,29.63,WNW,287,19.0,28.0,45,0.00,,,0.01,,2013-01-12 03:43:00,
2013-01-11 21:53:00,39.0,35.0,29.67,WNW,290,16.0,27.0,84,0.00,,,0.01,,2013-01-12 03:53:00,
2013-01-11 22:02:00,36.0,32.0,29.70,WNW,300,12.0,22.0,86,0.00,,,0.01,,2013-01-12 04:02:00,
2013-01-11 22:12:00,36.0,32.0,29.70,WNW,300,12.0,22.0,86,0.00,,,0.01,,2013-01-12 04:12:00,
2013-01-11 22:22:00,35.0,31.0,29.72,WNW,290,17.0,26.0,84,0.00,,,0.00,,2013-01-12 04:22:00,
2013-01-11 22:32:00,35.0,31.0,29.73,NW,319,8.0,22.0,85,0.00,,,0.00,,2013-01-12 04:32:00,
2013-01-11 22:42:00,35.0,31.0,29.73,NW,319,8.0,22.0,85,0.00,,,0.00,,2013-01-12 04:42:00,
2013-01-11 22:52:00,34.0,30.0,29.76,WNW,296,10.0,23.0,84,0.00,,,0.00,,2013-01-12 04:52:00,
2013-01-11 23:03:00,33.0,28.0,29.77,WNW,300,9.0,16.0,82,0.00,,,0.00,,2013-01-12 05:03:00,
2013-01-11 23:12:00,33.0,28.0,29.77,WNW,300,9.0,16.0,82,0.00,,,0.00,,2013-01-12 05:12:00,
2013-01-11 23:22:00,33.0,28.0,29.79,NW,306,11.0,23.0,81,0.00,,,0.00,,2013-01-12 05:22:00,
2013-01-11 23:32:00,33.0,28.0,29.79,NW,319,8.0,15.0,82,0.00,,,0.00,,2013-01-12 05:32:00,
2013-01-11 23:42:00,33.0,28.0,29.79,NW,319,8.0,15.0,82,0.00,,,0.00,,2013-01-12 05:42:00,
2013-01-11 23:52:00,32.0,27.0,29.82,NNW,340,7.0,16.0,81,0.00,,,0.00,,2013-01-12 05:52:00,